WBANNO,USDM_WEEK,LONGITUDE,LATITUDE,SMVWC_5_CM_MEAN,SMANOM_5_CM_MEAN,SMPERC_5_CM_30COUNTS,SMPERC_5_CM_70COUNTS,SMVWC_10_CM_MEAN,SMANOM_10_CM_MEAN,SMPERC_10_CM_30COUNTS,SMPERC_10_CM_70COUNTS,SMVWC_20_CM_MEAN,SMANOM_20_CM_MEAN,SMPERC_20_CM_30COUNTS,SMPERC_20_CM_70COUNTS,SMVWC_50_CM_MEAN,SMANOM_50_CM_MEAN,SMPERC_50_CM_30COUNTS,SMPERC_50_CM_70COUNTS,SMVWC_100_CM_MEAN,SMANOM_100_CM_MEAN,SMPERC_100_CM_30COUNTS,SMPERC_100_CM_70COUNTS,SMVWC_TOP_CM_MEAN,SMANOM_TOP_CM_MEAN,SMPERC_TOP_CM_30COUNTS,SMPERC_TOP_CM_70COUNTS,SMVWC_COLUMN_CM_MEAN,SMANOM_COLUMN_CM_MEAN,SMPERC_COLUMN_CM_30COUNTS,SMPERC_COLUMN_CM_70COUNTS
53926,20090529,-97.09,36.12,,,,,,,,,,,,,,,,,,,,,,,,,,,,
53926,20090530,-97.09,36.12,,,,,,,,,,,,,,,,,,,,,,,,,,,,
53926,20090531,-97.09,36.12,,,,,,,,,,,,,,,,,,,,,,,,,,,,
53926,20090601,-97.09,36.12,,,,,,,,,,,,,,,,,,,,,,,,,,,,
53926,20090602,-97.09,36.12,,,,,,,,,,,,,,,,,,,,,,,,,,,,
53926,20090603,-97.09,36.12,,,,,,,,,,,,,,,,,,,,,,,,,,,,
53926,20090604,-97.09,36.12,0.156,-0.57,1,0,0.238,-0.57,1,0,0.315,-0.72,1,0,0.392,-1.21,1,0,0.269,-2.52,1,0,0.197,-0.58,1,0,0.274,-0.91,1,0
53926,20090605,-97.09,36.12,0.153,-0.59,1,0,0.236,-0.58,1,0,0.315,-0.71,1,0,0.392,-1.19,1,0,0.273,-2.44,1,0,0.195,-0.59,1,0,0.274,-0.91,1,0
53926,20090606,-97.09,36.12,0.149,-0.61,1,0,0.234,-0.58,1,0,0.315,-0.7,1,0,0.392,-1.16,1,0,0.279,-2.34,1,0,0.192,-0.6,1,0,0.274,-0.91,1,0
53926,20090607,-97.09,36.12,0.145,-0.63,1,0,0.232,-0.59,1,0,0.315,-0.69,1,0,0.392,-1.11,1,0,0.282,-2.26,1,0,0.189,-0.61,1,0,0.273,-0.9,1,0
53926,20090608,-97.09,36.12,0.142,-0.64,1,0,0.23,-0.6,1,0,0.315,-0.67,1,0,0.393,-1.07,1,0,0.285,-2.2,1,0,0.186,-0.62,1,0,0.273,-0.9,1,0
53926,20090609,-97.09,36.12,0.14,-0.64,1,0,0.228,-0.6,1,0,0.315,-0.66,1,0,0.393,-1.03,1,0,0.287,-2.15,1,0,0.184,-0.62,1,0,0.272,-0.9,1,0
53926,20090610,-97.09,36.12,0.139,-0.63,1,0,0.226,-0.6,1,0,0.314,-0.65,1,0,0.393,-0.99,1,0,0.289,-2.11,1,0,0.183,-0.62,1,0,0.272,-0.89,1,0
53926,20090611,-97.09,36.12,0.141,-0.61,1,0,0.225,-0.59,1,0,0.315,-0.62,1,0,0.395,-0.93,1,0,0.29,-2.06,1,0,0.183,-0.6,1,0,0.273,-0.87,1,0
53926,20090612,-97.09,36.12,0.146,-0.56,0.923,0,0.224,-0.58,1,0,0.316,-0.58,0.976,0,0.396,-0.89,1,0,0.291,-2.01,1,0,0.185,-0.57,1,0,0.274,-0.84,1,0
53926,20090613,-97.09,36.12,0.169,-0.38,0.78,0.125,0.235,-0.48,0.869,0,0.319,-0.52,0.845,0,0.396,-0.85,1,0,0.292,-1.96,1,0,0.202,-0.41,0.869,0.125,0.282,-0.74,0.875,0
53926,20090614,-97.09,36.12,0.191,-0.2,0.637,0.268,0.247,-0.38,0.726,0,0.323,-0.44,0.702,0,0.397,-0.81,1,0,0.292,-1.9,1,0,0.219,-0.26,0.726,0.262,0.29,-0.64,0.732,0
53926,20090615,-97.09,36.12,0.211,-0.04,0.494,0.411,0.258,-0.28,0.583,0,0.327,-0.36,0.56,0,0.398,-0.77,1,0,0.293,-1.84,1,0,0.234,-0.12,0.583,0.321,0.297,-0.53,0.589,0
53926,20090616,-97.09,36.12,0.23,0.12,0.351,0.554,0.269,-0.18,0.44,0,0.33,-0.28,0.417,0,0.399,-0.73,1,0,0.293,-1.78,1,0,0.249,0.02,0.44,0.411,0.304,-0.42,0.446,0
53926,20090617,-97.09,36.12,0.247,0.27,0.208,0.696,0.28,-0.07,0.298,0,0.335,-0.2,0.274,0,0.4,-0.68,0.994,0,0.294,-1.73,1,0,0.264,0.15,0.298,0.512,0.311,-0.31,0.304,0
53926,20090618,-97.09,36.12,0.262,0.4,0.065,0.839,0.291,0.03,0.155,0,0.339,-0.13,0.131,0,0.401,-0.64,0.988,0,0.294,-1.67,1,0,0.276,0.27,0.155,0.613,0.317,-0.21,0.161,0
53926,20090619,-97.09,36.12,0.271,0.5,0,0.964,0.302,0.14,0.012,0,0.343,-0.06,0.012,0,0.401,-0.6,0.94,0,0.295,-1.62,1,0,0.287,0.37,0.012,0.685,0.323,-0.13,0.018,0
53926,20090620,-97.09,36.12,0.261,0.45,0,0.839,0.301,0.16,0,0,0.344,-0.02,0,0,0.403,-0.54,0.845,0,0.296,-1.57,1,0,0.281,0.35,0,0.56,0.321,-0.11,0,0
53926,20090621,-97.09,36.12,0.252,0.42,0,0.696,0.299,0.17,0,0,0.344,0.01,0,0,0.404,-0.49,0.72,0,0.297,-1.51,1,0,0.275,0.33,0,0.423,0.319,-0.11,0,0
53926,20090622,-97.09,36.12,0.245,0.39,0,0.554,0.298,0.19,0,0,0.345,0.03,0,0,0.405,-0.44,0.583,0,0.298,-1.47,1,0,0.271,0.32,0,0.363,0.318,-0.1,0,0
53926,20090623,-97.09,36.12,0.238,0.36,0,0.411,0.297,0.21,0,0,0.346,0.05,0,0,0.406,-0.39,0.44,0,0.298,-1.42,1,0,0.267,0.31,0,0.274,0.317,-0.09,0,0
53926,20090624,-97.09,36.12,0.229,0.31,0,0.268,0.296,0.22,0,0,0.346,0.07,0,0,0.407,-0.35,0.304,0,0.299,-1.38,1,0,0.263,0.29,0,0.173,0.316,-0.09,0,0
53926,20090625,-97.09,36.12,0.22,0.26,0,0.125,0.295,0.22,0,0,0.346,0.09,0,0,0.408,-0.3,0.167,0,0.3,-1.34,1,0,0.258,0.26,0,0.071,0.314,-0.1,0,0
53926,20090626,-97.09,36.12,0.21,0.19,0,0,0.294,0.22,0,0,0.347,0.11,0,0,0.409,-0.27,0.071,0,0.301,-1.3,1,0,0.252,0.22,0,0,0.312,-0.11,0,0
53926,20090627,-97.09,36.12,0.201,0.13,0,0,0.293,0.22,0,0,0.348,0.13,0,0,0.41,-0.23,0.024,0,0.302,-1.27,1,0,0.247,0.19,0,0,0.311,-0.12,0,0
53926,20090628,-97.09,36.12,0.191,0.06,0,0,0.29,0.2,0,0,0.348,0.15,0,0,0.411,-0.21,0.006,0,0.302,-1.24,1,0,0.241,0.15,0,0,0.308,-0.14,0,0
53926,20090629,-97.09,36.12,0.186,0.03,0,0,0.286,0.18,0,0,0.348,0.16,0,0,0.411,-0.18,0,0,0.303,-1.2,1,0,0.236,0.11,0,0,0.307,-0.15,0,0
53926,20090630,-97.09,36.12,0.182,0.01,0,0,0.282,0.15,0,0,0.348,0.16,0,0,0.412,-0.16,0,0,0.303,-1.16,1,0,0.232,0.09,0,0,0.305,-0.16,0,0
53926,20090701,-97.09,36.12,0.181,0,0,0,0.278,0.13,0,0,0.347,0.16,0,0,0.412,-0.14,0,0,0.303,-1.11,1,0,0.229,0.07,0,0,0.304,-0.16,0,0
53926,20090702,-97.09,36.12,0.18,0,0,0,0.275,0.11,0,0,0.346,0.16,0,0,0.411,-0.13,0,0,0.304,-1.07,1,0,0.227,0.06,0,0,0.303,-0.17,0,0
53926,20090703,-97.09,36.12,0.18,0.01,0,0,0.271,0.09,0,0,0.345,0.15,0,0,0.412,-0.12,0,0,0.304,-1.03,1,0,0.225,0.05,0,0,0.302,-0.17,0,0
53926,20090704,-97.09,36.12,0.179,0.01,0,0,0.269,0.08,0,0,0.345,0.15,0,0,0.411,-0.11,0,0,0.304,-1,1,0,0.224,0.04,0,0,0.301,-0.17,0,0
53926,20090705,-97.09,36.12,0.18,0.03,0,0,0.266,0.07,0,0,0.343,0.15,0,0,0.411,-0.1,0,0,0.304,-0.97,1,0,0.223,0.05,0,0,0.301,-0.16,0,0
53926,20090706,-97.09,36.12,0.178,0.02,0,0,0.264,0.06,0,0,0.342,0.15,0,0,0.41,-0.09,0,0,0.305,-0.94,1,0,0.221,0.04,0,0,0.3,-0.16,0,0
53926,20090707,-97.09,36.12,0.176,0.01,0,0,0.261,0.06,0,0,0.341,0.16,0,0,0.41,-0.08,0,0,0.305,-0.93,1,0,0.219,0.03,0,0,0.299,-0.16,0,0
53926,20090708,-97.09,36.12,0.175,0.01,0,0,0.258,0.06,0,0,0.34,0.18,0,0,0.41,-0.07,0,0,0.305,-0.93,1,0,0.216,0.03,0,0,0.297,-0.15,0,0
53926,20090709,-97.09,36.12,0.185,0.1,0,0.119,0.262,0.1,0,0,0.34,0.21,0,0.006,0.409,-0.06,0,0,0.305,-0.92,1,0,0.223,0.1,0,0.113,0.3,-0.11,0,0
53926,20090710,-97.09,36.12,0.198,0.2,0,0.262,0.266,0.15,0,0,0.342,0.26,0,0.089,0.408,-0.05,0,0,0.305,-0.92,1,0,0.232,0.18,0,0.244,0.304,-0.05,0,0
53926,20090711,-97.09,36.12,0.21,0.3,0,0.399,0.269,0.2,0,0,0.343,0.31,0,0.232,0.408,-0.04,0,0,0.305,-0.92,1,0,0.239,0.26,0,0.28,0.307,0.01,0,0
53926,20090712,-97.09,36.12,0.219,0.39,0,0.458,0.273,0.24,0,0,0.345,0.36,0,0.375,0.408,-0.02,0,0,0.305,-0.91,1,0,0.246,0.32,0,0.28,0.31,0.06,0,0
53926,20090713,-97.09,36.12,0.226,0.45,0,0.458,0.277,0.29,0,0,0.347,0.42,0,0.518,0.408,0,0,0,0.305,-0.91,1,0,0.251,0.38,0,0.28,0.313,0.1,0,0
53926,20090714,-97.09,36.12,0.228,0.47,0,0.458,0.28,0.33,0,0,0.349,0.47,0,0.661,0.409,0.03,0,0,0.305,-0.91,1,0,0.254,0.41,0,0.28,0.314,0.13,0,0
53926,20090715,-97.09,36.12,0.226,0.46,0,0.458,0.283,0.36,0,0,0.352,0.52,0,0.804,0.41,0.06,0,0,0.305,-0.9,1,0,0.254,0.42,0,0.28,0.315,0.15,0,0
53926,20090716,-97.09,36.12,0.218,0.4,0,0.369,0.282,0.37,0,0.03,0.354,0.57,0,0.935,0.412,0.11,0,0.03,0.308,-0.88,0.976,0,0.25,0.4,0,0.196,0.315,0.16,0,0.03
53926,20090717,-97.09,36.12,0.233,0.5,0,0.369,0.294,0.46,0,0.173,0.362,0.66,0,0.994,0.421,0.22,0,0.173,0.32,-0.76,0.833,0,0.264,0.49,0,0.208,0.326,0.28,0,0.173
53926,20090718,-97.09,36.12,0.244,0.56,0,0.375,0.303,0.52,0,0.315,0.369,0.74,0,0.994,0.429,0.32,0,0.315,0.333,-0.64,0.69,0,0.273,0.55,0,0.315,0.336,0.37,0,0.315
53926,20090719,-97.09,36.12,0.252,0.6,0,0.458,0.311,0.59,0,0.458,0.376,0.8,0,0.994,0.435,0.41,0,0.458,0.347,-0.52,0.548,0,0.282,0.61,0,0.458,0.344,0.46,0,0.458
53926,20090720,-97.09,36.12,0.261,0.65,0,0.601,0.319,0.65,0,0.601,0.382,0.87,0,0.994,0.441,0.51,0,0.601,0.36,-0.4,0.405,0,0.29,0.67,0,0.601,0.353,0.55,0,0.601
53926,20090721,-97.09,36.12,0.273,0.74,0,0.744,0.328,0.71,0,0.744,0.389,0.93,0,0.994,0.447,0.59,0,0.744,0.374,-0.27,0.262,0,0.301,0.75,0,0.744,0.362,0.65,0,0.744
53926,20090722,-97.09,36.12,0.296,0.9,0,0.887,0.34,0.81,0,0.887,0.397,1.01,0,0.994,0.455,0.69,0,0.887,0.388,-0.14,0.119,0,0.318,0.89,0,0.887,0.375,0.79,0,0.887
53926,20090723,-97.09,36.12,0.31,1,0,1,0.347,0.88,0,1,0.403,1.08,0,1,0.459,0.77,0,1,0.4,-0.03,0,0,0.328,0.98,0,1,0.384,0.88,0,1
53926,20090724,-97.09,36.12,0.297,0.92,0,1,0.339,0.85,0,1,0.401,1.07,0,1,0.458,0.78,0,1,0.402,-0.01,0,0,0.318,0.93,0,1,0.379,0.85,0,1
53926,20090725,-97.09,36.12,0.289,0.88,0,1,0.333,0.83,0,1,0.4,1.08,0,1,0.457,0.79,0,1,0.403,0.01,0,0,0.311,0.9,0,1,0.376,0.83,0,1
53926,20090726,-97.09,36.12,0.282,0.85,0,1,0.327,0.81,0,1,0.398,1.09,0,1,0.457,0.82,0,1,0.404,0.02,0,0,0.304,0.87,0,1,0.374,0.82,0,1
53926,20090727,-97.09,36.12,0.275,0.82,0,0.988,0.32,0.79,0,0.988,0.395,1.09,0,1,0.458,0.84,0,1,0.405,0.04,0,0,0.297,0.85,0,1,0.371,0.81,0,1
53926,20090728,-97.09,36.12,0.266,0.77,0,0.887,0.313,0.76,0,0.952,0.392,1.09,0,1,0.458,0.86,0,1,0.406,0.05,0,0,0.29,0.81,0,0.988,0.367,0.8,0,1
53926,20090729,-97.09,36.12,0.25,0.66,0,0.762,0.304,0.71,0,0.923,0.387,1.07,0,1,0.456,0.87,0,1,0.406,0.05,0,0,0.277,0.73,0,0.952,0.361,0.75,0,1
53926,20090730,-97.09,36.12,0.249,0.66,0,0.762,0.3,0.69,0,0.923,0.384,1.05,0,1,0.455,0.89,0,1,0.406,0.06,0,0.006,0.275,0.72,0,0.952,0.359,0.75,0,1
53926,20090731,-97.09,36.12,0.263,0.75,0,0.762,0.308,0.77,0,0.923,0.388,1.1,0,1,0.458,0.94,0,1,0.407,0.07,0,0.006,0.285,0.81,0,0.952,0.365,0.82,0,1
53926,20090801,-97.09,36.12,0.273,0.81,0,0.762,0.314,0.83,0,0.923,0.389,1.13,0,1,0.46,1,0,1,0.407,0.08,0,0.012,0.293,0.87,0,0.952,0.369,0.88,0,1
53926,20090802,-97.09,36.12,0.28,0.86,0,0.762,0.32,0.89,0,0.923,0.392,1.16,0,1,0.462,1.05,0,1,0.407,0.08,0,0.012,0.3,0.93,0,0.952,0.372,0.92,0,1
53926,20090803,-97.09,36.12,0.286,0.89,0,0.774,0.325,0.93,0,0.935,0.394,1.19,0,1,0.462,1.08,0,1,0.407,0.09,0,0.012,0.305,0.96,0,0.952,0.375,0.96,0,1
53926,20090804,-97.09,36.12,0.289,0.91,0,0.845,0.328,0.96,0,0.97,0.396,1.2,0,1,0.462,1.11,0,1,0.407,0.09,0,0.012,0.308,0.98,0,0.958,0.376,0.98,0,1
53926,20090805,-97.09,36.12,0.289,0.9,0,0.827,0.327,0.95,0,0.917,0.396,1.19,0,1,0.463,1.13,0,1,0.407,0.1,0,0.012,0.308,0.98,0,0.851,0.376,0.98,0,1
53926,20090806,-97.09,36.12,0.291,0.9,0,0.744,0.33,0.97,0,0.833,0.397,1.19,0,1,0.464,1.15,0,1,0.407,0.11,0,0.048,0.311,0.99,0,0.768,0.378,1,0,1
53926,20090807,-97.09,36.12,0.296,0.92,0,0.744,0.332,0.98,0,0.833,0.396,1.16,0,1,0.465,1.14,0,1,0.408,0.12,0,0.113,0.314,1,0,0.768,0.379,1.01,0,1
53926,20090808,-97.09,36.12,0.298,0.93,0,0.744,0.334,0.98,0,0.833,0.396,1.14,0,1,0.465,1.12,0,1,0.408,0.13,0,0.167,0.316,1,0,0.768,0.38,1.01,0,1
53926,20090809,-97.09,36.12,0.297,0.9,0,0.744,0.333,0.96,0,0.833,0.396,1.1,0,1,0.466,1.1,0,1,0.409,0.14,0,0.256,0.315,0.98,0,0.768,0.38,0.99,0,1
53926,20090810,-97.09,36.12,0.294,0.87,0,0.631,0.33,0.92,0,0.768,0.394,1.05,0,1,0.467,1.07,0,1,0.41,0.15,0,0.339,0.312,0.94,0,0.673,0.379,0.97,0,1
53926,20090811,-97.09,36.12,0.311,0.96,0,0.601,0.34,0.97,0,0.702,0.398,1.05,0,1,0.469,1.07,0,1,0.41,0.16,0,0.417,0.325,1,0,0.613,0.385,1.01,0,1
53926,20090812,-97.09,36.12,0.338,1.1,0,0.744,0.358,1.07,0,0.786,0.406,1.1,0,1,0.473,1.07,0,1,0.411,0.17,0,0.494,0.348,1.13,0,0.756,0.397,1.09,0,1
53926,20090813,-97.09,36.12,0.346,1.13,0,0.827,0.363,1.08,0,0.869,0.41,1.1,0,1,0.474,1.06,0,1,0.411,0.18,0,0.53,0.355,1.15,0,0.839,0.401,1.1,0,1
53926,20090814,-97.09,36.12,0.334,1.02,0,0.827,0.357,1.01,0,0.869,0.407,1.06,0,1,0.473,1.03,0,1,0.411,0.18,0,0.536,0.345,1.05,0,0.839,0.396,1.03,0,1
53926,20090815,-97.09,36.12,0.324,0.95,0,0.786,0.352,0.94,0,0.869,0.405,1.02,0,1,0.472,1,0,1,0.411,0.18,0,0.554,0.338,0.98,0,0.833,0.393,0.98,0,1
53926,20090816,-97.09,36.12,0.321,0.91,0,0.649,0.348,0.89,0,0.75,0.402,0.99,0,1,0.471,0.98,0,1,0.411,0.19,0,0.577,0.334,0.94,0,0.726,0.391,0.95,0,1
53926,20090817,-97.09,36.12,0.319,0.9,0,0.619,0.345,0.86,0,0.673,0.4,0.96,0,1,0.471,0.95,0,1,0.411,0.2,0,0.613,0.332,0.92,0,0.679,0.389,0.92,0,1
53926,20090818,-97.09,36.12,0.309,0.84,0,0.577,0.337,0.8,0,0.637,0.394,0.91,0,0.988,0.469,0.92,0,1,0.411,0.2,0,0.631,0.323,0.86,0,0.643,0.384,0.87,0,0.994
53926,20090819,-97.09,36.12,0.313,0.89,0,0.577,0.341,0.82,0,0.637,0.395,0.91,0,0.988,0.469,0.91,0,1,0.412,0.21,0,0.637,0.327,0.9,0,0.643,0.386,0.88,0,0.994
53926,20090820,-97.09,36.12,0.325,1,0,0.577,0.35,0.88,0,0.637,0.399,0.93,0,0.988,0.471,0.91,0,1,0.411,0.21,0,0.637,0.337,0.99,0,0.643,0.391,0.93,0,0.994
53926,20090821,-97.09,36.12,0.342,1.13,0,0.577,0.361,0.95,0,0.637,0.404,0.96,0,0.988,0.472,0.91,0,1,0.411,0.21,0,0.643,0.351,1.1,0,0.643,0.398,0.98,0,0.994
53926,20090822,-97.09,36.12,0.357,1.25,0,0.619,0.369,1.01,0,0.637,0.407,0.98,0,0.988,0.474,0.92,0,1,0.411,0.22,0,0.631,0.363,1.19,0,0.649,0.404,1.03,0,0.994
53926,20090823,-97.09,36.12,0.37,1.35,0,0.756,0.379,1.06,0,0.756,0.411,0.99,0,0.988,0.475,0.92,0,1,0.41,0.21,0,0.56,0.374,1.27,0,0.756,0.409,1.07,0,0.994
53926,20090824,-97.09,36.12,0.38,1.42,0,0.899,0.388,1.12,0,0.899,0.416,1.02,0,0.988,0.477,0.93,0,1,0.409,0.21,0,0.488,0.384,1.34,0,0.899,0.414,1.11,0,0.994
53926,20090825,-97.09,36.12,0.378,1.41,0,1,0.39,1.12,0,1,0.418,1.02,0,1,0.478,0.92,0,1,0.409,0.21,0,0.446,0.384,1.34,0,1,0.415,1.11,0,1
53926,20090826,-97.09,36.12,0.351,1.22,0,0.958,0.373,0.99,0,0.964,0.411,0.95,0,1,0.476,0.9,0,1,0.408,0.21,0,0.429,0.362,1.18,0,0.97,0.404,1.01,0,1
53926,20090827,-97.09,36.12,0.323,1.03,0,0.857,0.353,0.84,0,0.821,0.401,0.86,0,0.994,0.474,0.88,0,1,0.408,0.21,0,0.411,0.338,1,0,0.863,0.392,0.89,0,1
53926,20090828,-97.09,36.12,0.304,0.89,0,0.857,0.335,0.71,0,0.702,0.391,0.76,0,0.94,0.471,0.84,0,1,0.408,0.22,0,0.369,0.319,0.86,0,0.863,0.382,0.79,0,1
53926,20090829,-97.09,36.12,0.288,0.77,0,0.845,0.322,0.6,0,0.56,0.383,0.68,0,0.798,0.468,0.81,0,1,0.408,0.22,0,0.339,0.305,0.74,0,0.798,0.374,0.71,0,0.982
53926,20090830,-97.09,36.12,0.274,0.66,0,0.714,0.31,0.5,0,0.417,0.374,0.59,0,0.655,0.465,0.76,0,0.994,0.408,0.23,0,0.321,0.292,0.63,0,0.655,0.366,0.62,0,0.857
53926,20090831,-97.09,36.12,0.263,0.57,0,0.571,0.298,0.4,0,0.274,0.364,0.5,0,0.512,0.46,0.71,0,0.923,0.407,0.23,0,0.274,0.281,0.53,0,0.512,0.359,0.54,0,0.714
53926,20090901,-97.09,36.12,0.254,0.5,0,0.429,0.288,0.32,0,0.131,0.354,0.4,0,0.369,0.455,0.65,0,0.792,0.407,0.23,0,0.232,0.271,0.45,0,0.369,0.352,0.47,0,0.571
53926,20090902,-97.09,36.12,0.249,0.45,0,0.327,0.281,0.25,0,0.024,0.345,0.31,0,0.226,0.449,0.58,0,0.649,0.406,0.23,0,0.167,0.265,0.38,0,0.256,0.346,0.4,0,0.429
53926,20090903,-97.09,36.12,0.245,0.41,0,0.286,0.275,0.2,0,0.024,0.337,0.24,0,0.089,0.442,0.51,0,0.506,0.403,0.21,0,0.107,0.26,0.33,0,0.22,0.341,0.34,0,0.286
53926,20090904,-97.09,36.12,0.231,0.3,0,0.143,0.268,0.14,0,0,0.329,0.17,0,0,0.436,0.44,0,0.363,0.399,0.18,0,0.071,0.25,0.24,0,0.077,0.333,0.27,0,0.143
53926,20090905,-97.09,36.12,0.22,0.21,0,0.012,0.261,0.09,0,0,0.323,0.11,0,0,0.429,0.37,0,0.22,0.393,0.14,0,0.036,0.241,0.17,0,0,0.325,0.2,0,0.018
53926,20090906,-97.09,36.12,0.212,0.15,0,0,0.256,0.05,0,0,0.318,0.06,0,0,0.423,0.31,0,0.083,0.387,0.08,0,0.012,0.234,0.11,0,0,0.319,0.14,0,0
53926,20090907,-97.09,36.12,0.207,0.1,0,0,0.252,0.01,0,0,0.313,0.03,0,0,0.417,0.25,0,0.012,0.38,0.03,0,0.012,0.23,0.07,0,0,0.314,0.09,0,0
53926,20090908,-97.09,36.12,0.203,0.06,0,0,0.25,-0.01,0,0,0.31,0,0,0,0.412,0.2,0,0,0.373,-0.03,0,0,0.227,0.04,0,0,0.31,0.05,0,0
53926,20090909,-97.09,36.12,0.21,0.11,0,0.077,0.251,-0.01,0,0,0.309,-0.02,0,0,0.407,0.16,0,0,0.367,-0.08,0,0,0.23,0.06,0,0.077,0.309,0.04,0,0
53926,20090910,-97.09,36.12,0.223,0.21,0,0.22,0.257,0.03,0,0.042,0.308,-0.03,0,0,0.402,0.11,0,0,0.361,-0.13,0,0,0.24,0.13,0,0.19,0.31,0.06,0,0.042
53926,20090911,-97.09,36.12,0.253,0.44,0,0.363,0.278,0.17,0,0.185,0.318,0.05,0,0.095,0.405,0.14,0,0.095,0.371,-0.04,0,0.095,0.265,0.32,0,0.333,0.325,0.21,0,0.185
53926,20090912,-97.09,36.12,0.288,0.7,0,0.506,0.305,0.35,0,0.327,0.335,0.19,0,0.238,0.412,0.21,0,0.238,0.39,0.12,0,0.238,0.296,0.55,0,0.476,0.346,0.41,0,0.327
53926,20090913,-97.09,36.12,0.319,0.94,0,0.649,0.328,0.5,0,0.47,0.352,0.33,0,0.381,0.42,0.28,0,0.381,0.407,0.28,0,0.381,0.324,0.75,0,0.619,0.365,0.6,0,0.47
53926,20090914,-97.09,36.12,0.35,1.18,0,0.792,0.35,0.64,0,0.613,0.369,0.47,0,0.524,0.428,0.36,0,0.524,0.424,0.43,0,0.524,0.35,0.94,0,0.762,0.384,0.79,0,0.613
53926,20090915,-97.09,36.12,0.38,1.4,0,0.935,0.372,0.79,0,0.756,0.385,0.61,0,0.667,0.438,0.45,0,0.667,0.44,0.57,0,0.667,0.376,1.13,0,0.905,0.403,0.97,0,0.756
53926,20090916,-97.09,36.12,0.399,1.53,0,1,0.39,0.9,0,0.899,0.401,0.74,0,0.81,0.447,0.53,0,0.81,0.456,0.71,0,0.81,0.395,1.26,0,0.97,0.419,1.12,0,0.899
53926,20090917,-97.09,36.12,0.41,1.59,0,1,0.403,0.98,0,1,0.415,0.85,0,0.952,0.456,0.62,0,0.952,0.469,0.82,0,0.952,0.406,1.33,0,1,0.431,1.23,0,1
53926,20090918,-97.09,36.12,0.406,1.54,0,1,0.401,0.95,0,1,0.419,0.89,0,1,0.459,0.64,0,1,0.469,0.81,0,1,0.403,1.28,0,1,0.431,1.23,0,1
53926,20090919,-97.09,36.12,0.395,1.43,0,1,0.392,0.87,0,1,0.416,0.85,0,1,0.458,0.63,0,1,0.459,0.73,0,1,0.394,1.19,0,1,0.424,1.15,0,1
53926,20090920,-97.09,36.12,0.385,1.33,0,1,0.386,0.82,0,1,0.413,0.82,0,1,0.457,0.6,0,1,0.452,0.66,0,1,0.386,1.11,0,1,0.419,1.09,0,1
53926,20090921,-97.09,36.12,0.374,1.22,0,1,0.382,0.76,0,1,0.412,0.8,0,1,0.455,0.58,0,1,0.445,0.59,0,1,0.378,1.02,0,1,0.414,1.03,0,1
53926,20090922,-97.09,36.12,0.362,1.1,0,1,0.376,0.71,0,1,0.41,0.77,0,1,0.455,0.57,0,1,0.439,0.53,0,0.988,0.369,0.93,0,1,0.408,0.96,0,1
53926,20090923,-97.09,36.12,0.357,1.02,0,1,0.372,0.65,0,1,0.408,0.73,0,1,0.454,0.56,0,1,0.433,0.47,0,0.964,0.364,0.86,0,1,0.405,0.91,0,1
53926,20090924,-97.09,36.12,0.35,0.93,0,1,0.367,0.6,0,0.994,0.407,0.7,0,1,0.454,0.55,0,0.994,0.43,0.43,0,0.893,0.359,0.79,0,1,0.402,0.86,0,1
53926,20090925,-97.09,36.12,0.342,0.84,0,1,0.362,0.54,0,0.94,0.406,0.67,0,1,0.453,0.54,0,0.982,0.428,0.39,0,0.821,0.352,0.71,0,1,0.398,0.81,0,1
53926,20090926,-97.09,36.12,0.336,0.76,0,1,0.359,0.49,0,0.833,0.405,0.63,0,1,0.453,0.53,0,0.97,0.426,0.36,0,0.702,0.347,0.65,0,1,0.396,0.76,0,1
53926,20090927,-97.09,36.12,0.329,0.69,0,0.988,0.355,0.45,0,0.708,0.404,0.6,0,1,0.452,0.53,0,0.94,0.424,0.33,0,0.583,0.342,0.59,0,0.988,0.393,0.72,0,1
53926,20090928,-97.09,36.12,0.322,0.62,0,0.857,0.352,0.41,0,0.571,0.402,0.57,0,1,0.452,0.52,0,0.94,0.422,0.31,0,0.446,0.337,0.53,0,0.869,0.39,0.69,0,1
53926,20090929,-97.09,36.12,0.314,0.56,0,0.714,0.347,0.37,0,0.429,0.401,0.54,0,1,0.451,0.51,0,0.935,0.421,0.29,0,0.351,0.331,0.47,0,0.726,0.387,0.65,0,0.994
53926,20090930,-97.09,36.12,0.299,0.46,0,0.571,0.343,0.33,0,0.286,0.399,0.51,0,1,0.451,0.51,0,0.935,0.42,0.27,0,0.262,0.321,0.4,0,0.583,0.382,0.6,0,0.881
53926,20091001,-97.09,36.12,0.285,0.36,0,0.429,0.338,0.3,0,0.149,0.398,0.49,0,1,0.451,0.51,0,0.94,0.419,0.26,0,0.226,0.311,0.33,0,0.44,0.378,0.56,0,0.738
53926,20091002,-97.09,36.12,0.271,0.26,0,0.286,0.332,0.26,0,0.06,0.396,0.47,0,0.994,0.451,0.51,0,0.952,0.418,0.25,0,0.167,0.301,0.27,0,0.298,0.373,0.52,0,0.595
53926,20091003,-97.09,36.12,0.257,0.17,0,0.143,0.325,0.22,0,0.024,0.394,0.45,0,0.94,0.45,0.52,0,0.964,0.417,0.25,0,0.19,0.291,0.2,0,0.155,0.369,0.48,0,0.452
53926,20091004,-97.09,36.12,0.244,0.09,0,0.012,0.317,0.17,0,0.006,0.391,0.42,0,0.81,0.45,0.52,0,0.982,0.416,0.25,0,0.208,0.281,0.13,0,0.024,0.364,0.43,0,0.31
53926,20091005,-97.09,36.12,0.249,0.11,0,0.137,0.314,0.15,0,0,0.388,0.4,0,0.679,0.448,0.51,0,0.94,0.415,0.25,0,0.214,0.281,0.13,0,0.131,0.363,0.42,0,0.298
53926,20091006,-97.09,36.12,0.256,0.15,0,0.28,0.312,0.13,0,0,0.386,0.37,0,0.542,0.447,0.5,0,0.94,0.414,0.24,0,0.202,0.284,0.14,0,0.22,0.363,0.41,0,0.25
53926,20091007,-97.09,36.12,0.267,0.2,0,0.423,0.312,0.12,0,0,0.383,0.35,0,0.399,0.445,0.49,0,0.935,0.414,0.24,0,0.19,0.289,0.16,0,0.345,0.364,0.41,0,0.351
53926,20091008,-97.09,36.12,0.277,0.25,0,0.56,0.311,0.11,0,0,0.381,0.33,0,0.259,0.443,0.48,0,0.898,0.413,0.23,0,0.175,0.294,0.18,0,0.349,0.365,0.41,0,0.355
53926,20091009,-97.09,36.12,0.312,0.45,0,0.705,0.331,0.23,0,0.139,0.388,0.38,0,0.253,0.444,0.49,0,0.892,0.413,0.24,0,0.217,0.322,0.34,0,0.494,0.378,0.51,0,0.5
53926,20091010,-97.09,36.12,0.344,0.62,0,0.849,0.352,0.35,0,0.283,0.396,0.44,0,0.307,0.445,0.51,0,0.892,0.412,0.23,0,0.187,0.348,0.48,0,0.639,0.39,0.61,0,0.645
53926,20091011,-97.09,36.12,0.371,0.77,0,0.994,0.368,0.43,0,0.428,0.403,0.5,0,0.44,0.447,0.53,0,0.904,0.411,0.23,0,0.157,0.369,0.6,0,0.783,0.4,0.69,0,0.789
53926,20091012,-97.09,36.12,0.381,0.81,0,1,0.378,0.49,0,0.572,0.408,0.54,0,0.572,0.45,0.56,0,0.946,0.411,0.23,0,0.151,0.379,0.65,0,0.795,0.406,0.73,0,0.801
53926,20091013,-97.09,36.12,0.392,0.86,0,1,0.388,0.54,0,0.717,0.414,0.59,0,0.711,0.452,0.59,0,0.952,0.411,0.22,0,0.133,0.39,0.7,0,0.849,0.411,0.78,0,0.855
53926,20091014,-97.09,36.12,0.402,0.92,0,1,0.399,0.6,0,0.861,0.42,0.65,0,0.855,0.455,0.61,0,0.958,0.411,0.22,0,0.12,0.401,0.76,0,0.867,0.418,0.83,0,0.867
53926,20091015,-97.09,36.12,0.414,0.99,0,1,0.41,0.67,0,0.994,0.426,0.71,0,0.988,0.458,0.64,0,0.994,0.41,0.21,0,0.113,0.412,0.83,0,1,0.424,0.88,0,1
53926,20091016,-97.09,36.12,0.402,0.92,0,1,0.402,0.61,0,1,0.424,0.69,0,1,0.459,0.64,0,1,0.41,0.21,0,0.065,0.402,0.76,0,1,0.419,0.84,0,1
53926,20091017,-97.09,36.12,0.394,0.87,0,1,0.393,0.56,0,1,0.421,0.67,0,1,0.459,0.63,0,1,0.41,0.2,0,0.048,0.393,0.72,0,1,0.415,0.79,0,1
53926,20091018,-97.09,36.12,0.388,0.83,0,1,0.389,0.54,0,1,0.419,0.65,0,1,0.458,0.62,0,1,0.409,0.19,0,0.036,0.389,0.69,0,1,0.413,0.76,0,1
53926,20091019,-97.09,36.12,0.384,0.8,0,1,0.386,0.52,0,1,0.418,0.63,0,1,0.457,0.59,0,1,0.409,0.19,0,0.036,0.385,0.67,0,1,0.411,0.73,0,1
53926,20091020,-97.09,36.12,0.378,0.76,0,1,0.383,0.5,0,1,0.418,0.62,0,1,0.457,0.56,0,1,0.409,0.18,0,0.03,0.381,0.64,0,1,0.409,0.69,0,1
53926,20091021,-97.09,36.12,0.368,0.68,0,0.887,0.378,0.46,0,0.923,0.417,0.59,0,1,0.456,0.53,0,1,0.409,0.17,0,0.024,0.373,0.58,0,0.923,0.405,0.64,0,1
53926,20091022,-97.09,36.12,0.363,0.63,0,0.815,0.376,0.44,0,0.839,0.417,0.56,0,1,0.455,0.5,0,1,0.408,0.16,0,0.012,0.37,0.55,0,0.851,0.404,0.61,0,0.994
53926,20091023,-97.09,36.12,0.369,0.66,0,0.815,0.384,0.49,0,0.839,0.421,0.57,0,1,0.456,0.47,0,1,0.409,0.16,0,0.006,0.377,0.59,0,0.851,0.408,0.61,0,0.994
53926,20091024,-97.09,36.12,0.372,0.67,0,0.815,0.387,0.51,0,0.839,0.423,0.57,0,1,0.456,0.45,0,1,0.408,0.15,0,0.006,0.379,0.6,0,0.851,0.409,0.6,0,0.994
53926,20091025,-97.09,36.12,0.374,0.67,0,0.815,0.389,0.52,0,0.839,0.424,0.55,0,1,0.457,0.43,0,1,0.409,0.14,0,0.006,0.381,0.6,0,0.851,0.41,0.59,0,0.994
53926,20091026,-97.09,36.12,0.375,0.68,0,0.815,0.391,0.52,0,0.839,0.425,0.54,0,1,0.458,0.41,0,1,0.408,0.12,0,0,0.383,0.6,0,0.851,0.411,0.56,0,0.994
53926,20091027,-97.09,36.12,0.377,0.68,0,0.815,0.392,0.52,0,0.833,0.426,0.52,0,1,0.458,0.4,0,0.994,0.408,0.1,0,0,0.384,0.6,0,0.851,0.412,0.54,0,0.976
53926,20091028,-97.09,36.12,0.379,0.69,0,0.929,0.393,0.51,0,0.821,0.427,0.51,0,1,0.458,0.38,0,0.988,0.408,0.08,0,0,0.386,0.6,0,0.905,0.413,0.51,0,0.839
53926,20091029,-97.09,36.12,0.374,0.66,0,0.917,0.39,0.48,0,0.774,0.426,0.5,0,0.994,0.457,0.36,0,0.97,0.408,0.06,0,0,0.382,0.57,0,0.839,0.411,0.46,0,0.708
53926,20091030,-97.09,36.12,0.378,0.7,0,0.917,0.39,0.5,0,0.774,0.426,0.49,0,0.994,0.457,0.35,0,0.97,0.407,0.04,0,0,0.384,0.6,0,0.839,0.412,0.44,0,0.708
53926,20091031,-97.09,36.12,0.38,0.73,0,0.917,0.393,0.53,0,0.774,0.428,0.5,0,0.994,0.457,0.34,0,0.97,0.407,0.02,0,0,0.387,0.63,0,0.839,0.413,0.43,0,0.708
53926,20091101,-97.09,36.12,0.382,0.74,0,0.917,0.394,0.53,0,0.774,0.429,0.51,0,0.994,0.457,0.33,0,0.97,0.407,0.01,0,0,0.388,0.65,0,0.839,0.414,0.41,0,0.708
53926,20091102,-97.09,36.12,0.382,0.75,0,0.917,0.394,0.53,0,0.774,0.429,0.51,0,0.994,0.457,0.32,0,0.97,0.407,0,0,0,0.388,0.65,0,0.839,0.414,0.4,0,0.702
53926,20091103,-97.09,36.12,0.382,0.76,0,0.917,0.394,0.52,0,0.738,0.429,0.51,0,0.994,0.457,0.32,0,0.976,0.407,0,0,0,0.388,0.66,0,0.839,0.414,0.39,0,0.649
53926,20091104,-97.09,36.12,0.383,0.77,0,0.917,0.394,0.52,0,0.685,0.43,0.51,0,0.994,0.457,0.31,0,0.958,0.407,0,0,0,0.388,0.66,0,0.833,0.414,0.39,0,0.643
53926,20091105,-97.09,36.12,0.382,0.77,0,0.935,0.394,0.51,0,0.673,0.43,0.51,0,1,0.457,0.31,0,0.97,0.407,-0.01,0,0,0.388,0.66,0,0.833,0.414,0.38,0,0.637
53926,20091106,-97.09,36.12,0.363,0.62,0,0.792,0.382,0.39,0,0.53,0.425,0.47,0,1,0.456,0.3,0,0.923,0.407,-0.01,0,0.006,0.373,0.52,0,0.69,0.407,0.31,0,0.494